Weather History for Ft Riley, KS

Change the Weather History Date:

Friday, June 7, 2013

  Actual Average (KMHK) Record (KMHK)
Temperature  
Mean Temperature 63 °F 71 °F  
Max Temperature 76 °F 83 °F 96 °F (2011)
Min Temperature 51 °F 59 °F 46 °F (1998)
Degree Days  
Heating Degree Days 2 1  
Month to date heating degree days 7  
Since 1 June heating degree days 7  
Since 1 July heating degree days 5311  
Cooling Degree Days 0 7  
Month to date cooling degree days 43  
Year to date cooling degree days 143  
Since 1 June cooling degree days 43  
Growing Degree Days 13 (Base 50)    
Moisture  
Dew Point 53 °F    
Average Humidity 72    
Maximum Humidity 100    
Minimum Humidity 43    
Precipitation  
Precipitation 0.00 in 0.19 in 0.00 in (2014)
Month to date precipitation 1.18  
Year to date precipitation 12.38  
Sea Level Pressure  
Sea Level Pressure 29.97 in    
Wind  
Wind Speed 3 mph (ENE)    
Max Wind Speed 10 mph    
Max Gust Speed -    
Visibility 9 miles    
Events      
T = Trace of Precipitation, MM = Missing Value Source: NWS Daily Summary

Daily Weather History Graph

Daily Weather History Graph

Search for Another Location

Airport:

Trip Planner

Search our weather history database for the weather conditions in past years. The results will help you decide how hot, cold, wet, or windy it might be!

Date:

Astronomy

Jun. 07, 2013 Rise Set
Actual Time 6:01 AM CDT 8:50 PM CDT
Civil Twilight 5:29 AM CDT 9:22 PM CDT
Nautical Twilight 4:49 AM CDT 10:02 PM CDT
Astronomical Twilight 4:03 AM CDT 10:48 PM CDT
Moon 5:24 AM CDT (6/7) 8:06 PM CDT (6/7)
Length of Visible Light 15h 53m
Length of Day
14h 49m
Waning Crescent, 1% of the Moon is Illuminated
Jun 7
Waning Crescent
Jun 8
New
Jun 16
First Quarter
Jun 23
Full
Jun 29
Last Quarter

Hourly Weather History & Observations

Time (CDT) Temp. Dew Point Humidity Pressure Visibility Wind Dir Wind Speed Gust Speed Precip Events Conditions
12:58 AM 56.1 °F 56.1 °F 100% 29.99 in 10.0 mi NE 2.3 mph - N/A   Clear
1:58 AM 55.4 °F 55.4 °F 100% 29.99 in 10.0 mi Calm Calm - N/A   Clear
2:48 AM 53.6 °F 53.6 °F 100% 30.01 in 2.0 mi Calm Calm - N/A   Clear
2:53 AM 53.6 °F 53.6 °F 100% 30.01 in 2.0 mi Calm Calm - N/A   Clear
2:58 AM 53.6 °F 53.6 °F 100% 29.99 in 3.0 mi Calm Calm - N/A   Clear
3:58 AM 51.8 °F 51.8 °F 100% 30.01 in 10.0 mi SSW 3.5 mph - N/A   Clear
4:58 AM 53.1 °F 53.1 °F 100% 30.01 in 10.0 mi Calm Calm - N/A   Clear
5:58 AM 51.6 °F 51.6 °F 100% 30.01 in 10.0 mi Calm Calm - N/A   Scattered Clouds
6:58 AM 51.3 °F 51.3 °F 100% 30.02 in 10.0 mi NNE 2.3 mph - N/A   Clear
7:58 AM 57.0 °F 57.0 °F 100% 30.03 in 10.0 mi NNE 2.3 mph - N/A   Clear
8:58 AM 61.9 °F 56.8 °F 84% 30.03 in 10.0 mi NE 3.5 mph - N/A   Overcast
9:58 AM 66.7 °F 54.7 °F 65% 30.03 in 10.0 mi NE 3.5 mph - N/A   Mostly Cloudy
10:58 AM 69.6 °F 52.7 °F 55% 30.02 in 10.0 mi Variable 3.5 mph - N/A   Clear
11:58 AM 72.9 °F 52.5 °F 49% 30.01 in 10.0 mi NNE 10.4 mph - N/A   Clear
12:58 PM 73.6 °F 51.8 °F 46% 29.99 in 10.0 mi Variable 5.8 mph - N/A   Clear
1:58 PM 74.5 °F 53.1 °F 47% 29.98 in 10.0 mi Variable 5.8 mph - N/A   Partly Cloudy
2:58 PM 74.8 °F 52.3 °F 45% 29.96 in 10.0 mi NNW 8.1 mph - N/A   Scattered Clouds
3:58 PM 74.5 °F 52.9 °F 47% 29.96 in 10.0 mi Variable 2.3 mph - N/A   Mostly Cloudy
4:58 PM 74.3 °F 51.4 °F 45% 29.94 in 10.0 mi Variable 1.2 mph - N/A   Partly Cloudy
5:58 PM 75.0 °F 53.8 °F 47% 29.91 in 10.0 mi NNE 4.6 mph - N/A   Clear
6:58 PM 75.2 °F 51.3 °F 43% 29.89 in 10.0 mi East 2.3 mph - N/A   Clear
7:58 PM 73.0 °F 51.3 °F 46% 29.90 in 10.0 mi SE 6.9 mph - N/A   Clear
8:58 PM 68.4 °F 53.2 °F 58% 29.89 in 10.0 mi SE 5.8 mph - N/A   Clear
9:58 PM 66.4 °F 52.2 °F 60% 29.91 in 10.0 mi SE 8.1 mph - N/A   Clear
10:58 PM 64.8 °F 53.2 °F 66% 29.91 in 10.0 mi SE 10.4 mph - N/A   Clear
11:58 PM 63.0 °F 52.9 °F 70% 29.91 in 10.0 mi SE 8.1 mph - N/A   Clear